| time (UTC) | temp C | wind direction | speed KPH | gust KPH | rain 1hr cm | rain 24hr cm | rain mn cm | humidity % | barometer mb |
| 20260904191054 | 27 | 32 | 3.2 | 8.0 | 0.00 | 0.00 | 0.00 | 55 | 1021.5 |
| 20260904190555 | 27 | 30 | 3.2 | 6.4 | 0.00 | 0.00 | 0.00 | 54 | 1021.5 |
| 20260904185555 | 27 | 0 | 3.2 | 8.0 | 0.00 | 0.00 | 0.00 | 54 | 1021.8 |
| 20260904185055 | 27 | 29 | 3.2 | 8.0 | 0.00 | 0.00 | 0.00 | 54 | 1021.8 |
| 20260904184604 | 27 | 65 | 1.6 | 6.4 | 0.00 | 0.00 | 0.00 | 54 | 1022.0 |
| 20260904184055 | 27 | 65 | 1.6 | 6.4 | 0.00 | 0.00 | 0.00 | 54 | 1022.0 |
| 20260904183555 | 27 | 0 | 1.6 | 6.4 | 0.00 | 0.00 | 0.00 | 54 | 1022.0 |
| 20260904183116 | 27 | 0 | 0.0 | 8.0 | 0.00 | 0.00 | 0.00 | 55 | 1022.0 |
| 20260904182556 | 27 | 46 | 4.8 | 11.3 | 0.00 | 0.00 | 0.00 | 55 | 1022.1 |
| 20260904182052 | 27 | 274 | 3.2 | 11.3 | 0.00 | 0.00 | 0.00 | 54 | 1022.1 |
| 20260904181610 | 27 | 0 | 3.2 | 9.7 | 0.00 | 0.00 | 0.00 | 55 | 1022.1 |
| 20260904181053 | 27 | 13 | 6.4 | 9.7 | 0.00 | 0.00 | 0.00 | 57 | 1022.1 |
| 20260904180554 | 26 | 356 | 4.8 | 8.0 | 0.00 | 0.00 | 0.00 | 59 | 1022.3 |
| 20260904180106 | 26 | 358 | 1.6 | 11.3 | 0.00 | 0.00 | 0.00 | 57 | 1022.3 |
| 20260904175555 | 26 | 359 | 1.6 | 11.3 | 0.00 | 0.00 | 0.00 | 57 | 1022.3 |
| 20260904175051 | 27 | 244 | 4.8 | 11.3 | 0.00 | 0.00 | 0.00 | 56 | 1022.3 |
| 20260904174604 | 27 | 189 | 1.6 | 8.0 | 0.00 | 0.00 | 0.00 | 56 | 1022.2 |
| 20260904174051 | 27 | 243 | 3.2 | 8.0 | 0.00 | 0.00 | 0.00 | 57 | 1022.3 |
| 20260904173552 | 26 | 292 | 3.2 | 8.0 | 0.00 | 0.00 | 0.00 | 57 | 1022.3 |
| 20260904173059 | 26 | 0 | 0.0 | 12.9 | 0.00 | 0.00 | 0.00 | 57 | 1022.4 |
| 20260904172555 | 26 | 304 | 6.4 | 12.9 | 0.00 | 0.00 | 0.00 | 57 | 1022.5 |
| 20260904172051 | 26 | 332 | 4.8 | 12.9 | 0.00 | 0.00 | 0.00 | 58 | 1022.4 |
| 20260904171621 | 27 | 47 | 4.8 | 14.5 | 0.00 | 0.00 | 0.00 | 56 | 1022.5 |
| 20260904171051 | 27 | 319 | 4.8 | 14.5 | 0.00 | 0.00 | 0.00 | 56 | 1022.6 |
| 20260904170550 | 27 | 312 | 8.0 | 14.5 | 0.00 | 0.00 | 0.00 | 56 | 1022.6 |
| 20260904170105 | 27 | 20 | 6.4 | 11.3 | 0.00 | 0.00 | 0.00 | 57 | 1022.6 |
| 20260904165552 | 27 | 352 | 4.8 | 11.3 | 0.00 | 0.00 | 0.00 | 59 | 1022.6 |
| 20260904165052 | 26 | 353 | 4.8 | 11.3 | 0.00 | 0.00 | 0.00 | 58 | 1022.6 |
| 20260904164608 | 26 | 284 | 1.6 | 8.0 | 0.00 | 0.00 | 0.00 | 59 | 1022.6 |
| 20260904164052 | 26 | 63 | 3.2 | 8.0 | 0.00 | 0.00 | 0.00 | 58 | 1022.4 |
| 20260904163552 | 26 | 29 | 3.2 | 12.9 | 0.00 | 0.00 | 0.00 | 60 | 1022.3 |
| 20260904163100 | 26 | 327 | 3.2 | 12.9 | 0.00 | 0.00 | 0.00 | 60 | 1022.4 |
| 20260904162554 | 26 | 44 | 3.2 | 9.7 | 0.00 | 0.00 | 0.00 | 62 | 1022.4 |
| 20260904162050 | 26 | 25 | 1.6 | 8.0 | 0.00 | 0.00 | 0.00 | 61 | 1022.4 |
| 20260904161605 | 25 | 58 | 3.2 | 8.0 | 0.00 | 0.00 | 0.00 | 61 | 1022.4 |
| 20260904161050 | 25 | 31 | 3.2 | 8.0 | 0.00 | 0.00 | 0.00 | 62 | 1022.4 |
| 20260904160552 | 25 | 14 | 4.8 | 8.0 | 0.00 | 0.00 | 0.00 | 64 | 1022.4 |
| 20260904160107 | 25 | 18 | 1.6 | 6.4 | 0.00 | 0.00 | 0.00 | 64 | 1022.4 |
| 20260904155551 | 25 | 18 | 3.2 | 6.4 | 0.00 | 0.00 | 0.00 | 65 | 1022.4 |
| 20260904155056 | 24 | 18 | 3.2 | 8.0 | 0.00 | 0.00 | 0.00 | 66 | 1022.4 |
| 20260904154604 | 24 | 18 | 1.6 | 9.7 | 0.00 | 0.00 | 0.00 | 69 | 1022.4 |
| 20260904154052 | 24 | 18 | 3.2 | 9.7 | 0.00 | 0.00 | 0.00 | 71 | 1022.5 |
| 20260904153552 | 24 | 18 | 1.6 | 6.4 | 0.00 | 0.00 | 0.00 | 73 | 1022.5 |
| 20260904153109 | 23 | 14 | 1.6 | 6.4 | 0.00 | 0.00 | 0.00 | 73 | 1022.4 |
| 20260904152551 | 23 | 14 | 1.6 | 4.8 | 0.00 | 0.00 | 0.00 | 73 | 1022.3 |
| 20260904152057 | 23 | 14 | 1.6 | 4.8 | 0.00 | 0.00 | 0.00 | 75 | 1022.4 |
| 20260904151606 | 22 | 14 | 1.6 | 4.8 | 0.00 | 0.00 | 0.00 | 77 | 1022.3 |
| 20260904151055 | 22 | 0 | 0.0 | 4.8 | 0.00 | 0.00 | 0.00 | 79 | 1022.3 |
| 20260904150555 | 22 | 14 | 1.6 | 4.8 | 0.00 | 0.00 | 0.00 | 80 | 1022.3 |
| 20260904145559 | 21 | 14 | 0.0 | 6.4 | 0.00 | 0.00 | 0.00 | 84 | 1022.3 |
| 20260904145057 | 21 | 14 | 3.2 | 6.4 | 0.00 | 0.00 | 0.00 | 85 | 1022.3 |
| 20260904144604 | 21 | 14 | 1.6 | 4.8 | 0.00 | 0.00 | 0.00 | 87 | 1022.3 |
| 20260904144054 | 20 | 14 | 1.6 | 4.8 | 0.00 | 0.00 | 0.00 | 87 | 1022.3 |
| 20260904143555 | 20 | 14 | 1.6 | 4.8 | 0.00 | 0.00 | 0.00 | 89 | 1022.2 |
| 20260904143136 | 20 | 14 | 0.0 | 3.2 | 0.00 | 0.00 | 0.00 | 90 | 1022.1 |
| 20260904142558 | 20 | 0 | 0.0 | 3.2 | 0.00 | 0.00 | 0.00 | 91 | 1022.1 |
| 20260904142056 | 19 | 14 | 0.0 | 1.6 | 0.00 | 0.00 | 0.00 | 91 | 1022.0 |
| 20260904141609 | 19 | 0 | 0.0 | 3.2 | 0.00 | 0.00 | 0.00 | 92 | 1022.1 |
| 20260904141054 | 19 | 0 | 0.0 | 3.2 | 0.00 | 0.00 | 0.00 | 92 | 1021.9 |
| 20260904140555 | 18 | 0 | 0.0 | 3.2 | 0.00 | 0.00 | 0.00 | 92 | 1021.9 |
| 20260904140104 | 18 | 14 | 0.0 | 4.8 | 0.00 | 0.00 | 0.00 | 93 | 1021.9 |
| 20260904135557 | 18 | 0 | 0.0 | 4.8 | 0.00 | 0.00 | 0.00 | 93 | 1021.9 |
| 20260904135055 | 18 | 14 | 0.0 | 3.2 | 0.00 | 0.00 | 0.00 | 93 | 1021.8 |
| 20260904134607 | 17 | 0 | 0.0 | 3.2 | 0.00 | 0.00 | 0.00 | 93 | 1021.7 |
| 20260904134100 | 17 | 0 | 1.6 | 3.2 | 0.00 | 0.00 | 0.00 | 92 | 1021.6 |
| 20260904133554 | 17 | 14 | 1.6 | 3.2 | 0.00 | 0.00 | 0.00 | 93 | 1021.6 |
| 20260904133105 | 17 | 0 | 0.0 | 3.2 | 0.00 | 0.00 | 0.00 | 92 | 1021.6 |
| 20260904132556 | 17 | 14 | 1.6 | 3.2 | 0.00 | 0.00 | 0.00 | 92 | 1021.5 |
| 20260904132054 | 17 | 0 | 0.0 | 3.2 | 0.00 | 0.00 | 0.00 | 92 | 1021.5 |
| 20260904131613 | 16 | 14 | 0.0 | 3.2 | 0.00 | 0.00 | 0.00 | 92 | 1021.5 |
| 20260904131054 | 16 | 14 | 0.0 | 1.6 | 0.00 | 0.00 | 0.00 | 92 | 1021.5 |
| 20260904130555 | 16 | 0 | 0.0 | 3.2 | 0.00 | 0.00 | 0.00 | 91 | 1021.4 |
| 20260904130104 | 16 | 0 | 0.0 | 3.2 | 0.00 | 0.00 | 0.00 | 91 | 1021.2 |
| 20260904125555 | 16 | 14 | 0.0 | 3.2 | 0.00 | 0.00 | 0.00 | 91 | 1021.2 |
| 20260904125056 | 16 | 14 | 0.0 | 3.2 | 0.00 | 0.00 | 0.00 | 91 | 1021.0 |
| 20260904124606 | 17 | 0 | 0.0 | 1.6 | 0.00 | 0.00 | 0.00 | 92 | 1021.1 |
| 20260904124056 | 17 | 14 | 0.0 | 0.0 | 0.00 | 0.00 | 0.00 | 91 | 1021.0 |
| 20260904123554 | 17 | 0 | 0.0 | 0.0 | 0.00 | 0.00 | 0.00 | 91 | 1021.0 |
| 20260904123104 | 17 | 0 | 0.0 | 0.0 | 0.00 | 0.00 | 0.00 | 91 | 1021.0 |
| 20260904122554 | 17 | 0 | 0.0 | 0.0 | 0.00 | 0.00 | 0.00 | 91 | 1021.0 |
| 20260904122054 | 17 | 0 | 0.0 | 0.0 | 0.00 | 0.00 | 0.00 | 91 | 1020.9 |
| 20260904121601 | 17 | 0 | 0.0 | 0.0 | 0.00 | 0.00 | 0.00 | 91 | 1020.8 |
| 20260904121221 | 17 | 0 | 0.0 | 3.2 | 0.00 | 0.00 | 0.00 | 91 | 1020.7 |
| 20260904120555 | 17 | 0 | 0.0 | 3.2 | 0.00 | 0.00 | 0.00 | 91 | 1020.6 |
| 20260904120109 | 17 | 14 | 0.0 | 4.8 | 0.00 | 0.00 | 0.00 | 91 | 1020.7 |
| 20260904115554 | 17 | 0 | 1.6 | 4.8 | 0.00 | 0.00 | 0.00 | 91 | 1020.6 |
| 20260904115055 | 17 | 14 | 1.6 | 4.8 | 0.00 | 0.00 | 0.00 | 91 | 1020.6 |
| 20260904114610 | 17 | 14 | 0.0 | 1.6 | 0.00 | 0.00 | 0.00 | 91 | 1020.5 |
| 20260904114054 | 17 | 0 | 0.0 | 3.2 | 0.00 | 0.00 | 0.00 | 91 | 1020.4 |
| 20260904113555 | 17 | 0 | 0.0 | 3.2 | 0.00 | 0.00 | 0.00 | 91 | 1020.4 |
| 20260904113103 | 17 | 0 | 1.6 | 4.8 | 0.00 | 0.00 | 0.00 | 91 | 1020.4 |
| 20260904112554 | 17 | 14 | 1.6 | 4.8 | 0.00 | 0.00 | 0.00 | 91 | 1020.4 |
| 20260904112054 | 17 | 14 | 1.6 | 4.8 | 0.00 | 0.00 | 0.00 | 90 | 1020.3 |
| 20260904111604 | 17 | 15 | 1.6 | 4.8 | 0.00 | 0.00 | 0.00 | 90 | 1020.4 |
| 20260904111055 | 17 | 18 | 1.6 | 4.8 | 0.00 | 0.00 | 0.00 | 90 | 1020.5 |
| 20260904110554 | 17 | 18 | 0.0 | 3.2 | 0.00 | 0.00 | 0.00 | 90 | 1020.4 |
| 20260904110116 | 17 | 0 | 0.0 | 0.0 | 0.00 | 0.00 | 0.00 | 90 | 1020.6 |
| 20260904105557 | 17 | 0 | 0.0 | 0.0 | 0.00 | 0.00 | 0.00 | 90 | 1020.5 |
| 20260904105057 | 17 | 0 | 0.0 | 0.0 | 0.00 | 0.00 | 0.00 | 90 | 1020.5 |
| 20260904104604 | 17 | 0 | 0.0 | 0.0 | 0.00 | 0.00 | 0.00 | 90 | 1020.4 |
| 20260904104055 | 17 | 0 | 0.0 | 0.0 | 0.00 | 0.00 | 0.00 | 90 | 1020.4 |
| 20260904103554 | 17 | 0 | 0.0 | 1.6 | 0.00 | 0.00 | 0.00 | 89 | 1020.4 |
| 20260904103107 | 17 | 0 | 0.0 | 1.6 | 0.00 | 0.00 | 0.00 | 90 | 1020.4 |
| 20260904102555 | 17 | 0 | 0.0 | 3.2 | 0.00 | 0.00 | 0.00 | 90 | 1020.5 |
| 20260904102054 | 18 | 18 | 0.0 | 3.2 | 0.00 | 0.00 | 0.00 | 89 | 1020.5 |
| 20260904101603 | 18 | 18 | 0.0 | 3.2 | 0.00 | 0.00 | 0.00 | 90 | 1020.4 |
| 20260904101057 | 18 | 0 | 0.0 | 3.2 | 0.00 | 0.00 | 0.00 | 90 | 1020.4 |
| 20260904100558 | 18 | 18 | 0.0 | 3.2 | 0.00 | 0.00 | 0.00 | 90 | 1020.4 |
| 20260904100127 | 18 | 0 | 0.0 | 4.8 | 0.00 | 0.00 | 0.00 | 90 | 1020.4 |
| 20260904095554 | 18 | 18 | 1.6 | 4.8 | 0.00 | 0.00 | 0.00 | 89 | 1020.3 |
| 20260904095056 | 18 | 15 | 1.6 | 4.8 | 0.00 | 0.00 | 0.00 | 89 | 1020.5 |
| 20260904094605 | 18 | 342 | 0.0 | 3.2 | 0.00 | 0.00 | 0.00 | 89 | 1020.4 |
| 20260904094055 | 18 | 0 | 0.0 | 3.2 | 0.00 | 0.00 | 0.00 | 89 | 1020.4 |
| 20260904093554 | 18 | 0 | 0.0 | 3.2 | 0.00 | 0.00 | 0.00 | 89 | 1020.6 |
| 20260904093104 | 18 | 342 | 0.0 | 3.2 | 0.00 | 0.00 | 0.00 | 89 | 1020.5 |
| 20260904092558 | 18 | 0 | 0.0 | 0.0 | 0.00 | 0.00 | 0.00 | 89 | 1020.5 |
| 20260904092056 | 18 | 0 | 0.0 | 1.6 | 0.00 | 0.00 | 0.00 | 89 | 1020.4 |
| 20260904091601 | 18 | 0 | 0.0 | 3.2 | 0.00 | 0.00 | 0.00 | 89 | 1020.4 |
| 20260904091055 | 18 | 0 | 0.0 | 3.2 | 0.00 | 0.00 | 0.00 | 89 | 1020.4 |
| 20260904090555 | 18 | 0 | 0.0 | 3.2 | 0.00 | 0.00 | 0.00 | 89 | 1020.4 |
| 20260904090105 | 18 | 342 | 0.0 | 3.2 | 0.00 | 0.00 | 0.00 | 89 | 1020.6 |
| 20260904085557 | 18 | 0 | 0.0 | 3.2 | 0.00 | 0.00 | 0.00 | 89 | 1020.5 |
| 20260904085055 | 18 | 0 | 0.0 | 3.2 | 0.00 | 0.00 | 0.00 | 88 | 1020.6 |
| 20260904084612 | 18 | 0 | 0.0 | 1.6 | 0.00 | 0.00 | 0.00 | 88 | 1020.5 |
| 20260904084058 | 18 | 0 | 0.0 | 3.2 | 0.00 | 0.00 | 0.00 | 88 | 1020.6 |
| 20260904083554 | 18 | 0 | 0.0 | 4.8 | 0.00 | 0.00 | 0.00 | 88 | 1020.6 |
| 20260904083104 | 18 | 342 | 0.0 | 4.8 | 0.00 | 0.00 | 0.00 | 88 | 1020.6 |
| 20260904082554 | 18 | 342 | 0.0 | 4.8 | 0.00 | 0.00 | 0.00 | 88 | 1020.5 |
| 20260904082055 | 18 | 0 | 1.6 | 4.8 | 0.00 | 0.00 | 0.00 | 87 | 1020.5 |
| 20260904081600 | 18 | 0 | 0.0 | 4.8 | 0.00 | 0.00 | 0.00 | 87 | 1020.6 |
| 20260904081054 | 18 | 342 | 1.6 | 4.8 | 0.00 | 0.00 | 0.00 | 87 | 1020.6 |
| 20260904080556 | 19 | 342 | 0.0 | 3.2 | 0.00 | 0.00 | 0.00 | 86 | 1020.6 |
| 20260904080107 | 19 | 342 | 0.0 | 6.4 | 0.00 | 0.00 | 0.00 | 86 | 1020.7 |
| 20260904075556 | 19 | 342 | 1.6 | 6.4 | 0.00 | 0.00 | 0.00 | 85 | 1020.6 |
| 20260904075054 | 19 | 342 | 1.6 | 6.4 | 0.00 | 0.00 | 0.00 | 85 | 1020.6 |
| 20260904074614 | 20 | 336 | 3.2 | 6.4 | 0.00 | 0.00 | 0.00 | 84 | 1020.6 |
| 20260904074055 | 20 | 338 | 3.2 | 8.0 | 0.00 | 0.00 | 0.00 | 83 | 1020.6 |
| 20260904073555 | 20 | 340 | 3.2 | 8.0 | 0.00 | 0.00 | 0.00 | 82 | 1020.7 |
| 20260904073117 | 20 | 348 | 0.0 | 6.4 | 0.00 | 0.00 | 0.00 | 82 | 1020.7 |
| 20260904072555 | 20 | 0 | 0.0 | 8.0 | 0.00 | 0.00 | 0.00 | 82 | 1020.7 |
| 20260904072055 | 20 | 165 | 3.2 | 9.7 | 0.00 | 0.00 | 0.00 | 82 | 1020.6 |
| 20260904071609 | 20 | 160 | 4.8 | 9.7 | 0.00 | 0.00 | 0.00 | 82 | 1020.6 |
| 20260904071055 | 20 | 150 | 6.4 | 11.3 | 0.00 | 0.00 | 0.00 | 82 | 1020.5 |
| 20260904070556 | 20 | 148 | 6.4 | 12.9 | 0.00 | 0.00 | 0.00 | 82 | 1020.5 |
| 20260904070100 | 20 | 136 | 8.0 | 12.9 | 0.00 | 0.00 | 0.00 | 83 | 1020.5 |
| 20260904065554 | 20 | 136 | 6.4 | 11.3 | 0.00 | 0.00 | 0.00 | 84 | 1020.5 |
| 20260904065055 | 20 | 141 | 6.4 | 11.3 | 0.00 | 0.00 | 0.00 | 84 | 1020.6 |
| 20260904064602 | 20 | 136 | 8.0 | 11.3 | 0.00 | 0.00 | 0.00 | 85 | 1020.5 |
| 20260904064055 | 20 | 127 | 6.4 | 9.7 | 0.00 | 0.00 | 0.00 | 86 | 1020.6 |
| 20260904063555 | 19 | 116 | 3.2 | 6.4 | 0.00 | 0.00 | 0.00 | 86 | 1020.6 |
| 20260904063101 | 19 | 116 | 3.2 | 8.0 | 0.00 | 0.00 | 0.00 | 86 | 1020.5 |
| 20260904062555 | 19 | 116 | 4.8 | 8.0 | 0.00 | 0.00 | 0.00 | 86 | 1020.6 |
| 20260904062055 | 19 | 116 | 4.8 | 6.4 | 0.00 | 0.00 | 0.00 | 86 | 1020.6 |
| 20260904061600 | 19 | 116 | 4.8 | 6.4 | 0.00 | 0.00 | 0.00 | 86 | 1020.8 |
| 20260904061056 | 19 | 115 | 3.2 | 8.0 | 0.00 | 0.00 | 0.00 | 86 | 1020.6 |
| 20260904060556 | 19 | 116 | 4.8 | 8.0 | 0.00 | 0.00 | 0.00 | 86 | 1020.6 |
| 20260904060113 | 19 | 115 | 4.8 | 6.4 | 0.00 | 0.00 | 0.00 | 85 | 1020.7 |
| 20260904055554 | 20 | 58 | 0.0 | 3.2 | 0.00 | 0.00 | 0.00 | 85 | 1020.6 |
| 20260904055055 | 20 | 0 | 0.0 | 3.2 | 0.00 | 0.00 | 0.00 | 85 | 1020.5 |
| 20260904054606 | 20 | 0 | 0.0 | 3.2 | 0.00 | 0.00 | 0.00 | 85 | 1020.5 |
| 20260904054055 | 20 | 0 | 0.0 | 1.6 | 0.00 | 0.00 | 0.00 | 85 | 1020.6 |
| 20260904053555 | 20 | 0 | 0.0 | 1.6 | 0.00 | 0.00 | 0.00 | 85 | 1020.6 |
| 20260904053105 | 20 | 0 | 0.0 | 4.8 | 0.00 | 0.00 | 0.00 | 84 | 1020.7 |
| 20260904052555 | 20 | 0 | 0.0 | 4.8 | 0.00 | 0.00 | 0.00 | 84 | 1020.6 |
| 20260904052055 | 20 | 0 | 0.0 | 0.0 | 0.00 | 0.00 | 0.00 | 84 | 1020.6 |
| 20260904051601 | 20 | 0 | 0.0 | 0.0 | 0.00 | 0.00 | 0.00 | 84 | 1020.7 |
| 20260904051055 | 20 | 0 | 0.0 | 0.0 | 0.00 | 0.00 | 0.00 | 84 | 1020.7 |
| 20260904050554 | 20 | 0 | 0.0 | 0.0 | 0.00 | 0.00 | 0.00 | 84 | 1020.7 |
| 20260904050105 | 20 | 0 | 0.0 | 0.0 | 0.00 | 0.00 | 0.00 | 84 | 1020.9 |
| 20260904045555 | 20 | 0 | 0.0 | 0.0 | 0.00 | 0.00 | 0.00 | 83 | 1021.0 |
| 20260904045054 | 20 | 0 | 0.0 | 0.0 | 0.00 | 0.00 | 0.00 | 84 | 1021.2 |
| 20260904044600 | 21 | 0 | 0.0 | 0.0 | 0.00 | 0.00 | 0.00 | 83 | 1021.3 |
| 20260904044056 | 21 | 0 | 0.0 | 0.0 | 0.00 | 0.00 | 0.00 | 83 | 1021.3 |
| 20260904043554 | 21 | 0 | 0.0 | 0.0 | 0.00 | 0.00 | 0.00 | 83 | 1021.1 |
| 20260904043107 | 21 | 0 | 0.0 | 0.0 | 0.00 | 0.00 | 0.00 | 83 | 1021.1 |
| 20260904042559 | 21 | 0 | 0.0 | 0.0 | 0.00 | 0.00 | 0.00 | 83 | 1021.2 |
| 20260904042054 | 21 | 0 | 0.0 | 0.0 | 0.00 | 0.00 | 0.00 | 82 | 1021.2 |
| 20260904041606 | 21 | 0 | 0.0 | 0.0 | 0.00 | 0.00 | 0.00 | 81 | 1021.3 |
| 20260904041055 | 21 | 0 | 0.0 | 0.0 | 0.00 | 0.00 | 0.00 | 82 | 1021.1 |
| 20260904040555 | 21 | 0 | 0.0 | 0.0 | 0.00 | 0.00 | 0.00 | 82 | 1021.2 |
| 20260904040104 | 21 | 0 | 0.0 | 0.0 | 0.00 | 0.00 | 0.00 | 81 | 1021.1 |
| 20260904035555 | 21 | 0 | 0.0 | 0.0 | 0.00 | 0.00 | 0.00 | 82 | 1021.0 |
| 20260904035054 | 21 | 0 | 0.0 | 0.0 | 0.00 | 0.00 | 0.00 | 82 | 1021.0 |
| 20260904034600 | 21 | 0 | 0.0 | 0.0 | 0.00 | 0.00 | 0.00 | 82 | 1021.0 |
| 20260904034055 | 21 | 0 | 0.0 | 0.0 | 0.00 | 0.00 | 0.00 | 82 | 1021.0 |
| 20260904033555 | 21 | 0 | 0.0 | 0.0 | 0.00 | 0.00 | 0.00 | 82 | 1021.0 |
| 20260904033105 | 21 | 0 | 0.0 | 0.0 | 0.00 | 0.00 | 0.00 | 83 | 1021.0 |
| 20260904032554 | 21 | 0 | 0.0 | 0.0 | 0.00 | 0.00 | 0.00 | 83 | 1020.8 |
| 20260904032055 | 21 | 0 | 0.0 | 3.2 | 0.00 | 0.00 | 0.00 | 82 | 1020.7 |
| 20260904031603 | 21 | 0 | 0.0 | 4.8 | 0.00 | 0.00 | 0.00 | 82 | 1020.6 |
| 20260904031056 | 21 | 58 | 1.6 | 4.8 | 0.00 | 0.00 | 0.00 | 82 | 1020.6 |
| 20260904030555 | 21 | 58 | 3.2 | 4.8 | 0.00 | 0.00 | 0.00 | 82 | 1020.4 |
| 20260904030105 | 21 | 23 | 0.0 | 4.8 | 0.00 | 0.00 | 0.00 | 82 | 1020.2 |
| 20260904025557 | 21 | 0 | 0.0 | 0.0 | 0.00 | 0.00 | 0.00 | 82 | 1020.2 |
| 20260904025057 | 21 | 0 | 0.0 | 0.0 | 0.00 | 0.00 | 0.00 | 82 | 1020.2 |
| 20260904024602 | 21 | 0 | 0.0 | 4.8 | 0.00 | 0.00 | 0.00 | 82 | 1020.1 |
| 20260904024056 | 21 | 0 | 0.0 | 4.8 | 0.00 | 0.00 | 0.00 | 82 | 1020.1 |
| 20260904023554 | 21 | 1 | 1.6 | 4.8 | 0.00 | 0.00 | 0.00 | 82 | 1020.0 |
| 20260904023105 | 21 | 0 | 0.0 | 6.4 | 0.00 | 0.00 | 0.00 | 81 | 1019.9 |
| 20260904022555 | 21 | 1 | 1.6 | 6.4 | 0.00 | 0.00 | 0.00 | 80 | 1019.9 |
| 20260904022055 | 21 | 1 | 3.2 | 6.4 | 0.00 | 0.00 | 0.00 | 79 | 1019.9 |
| 20260904021606 | 21 | 359 | 0.0 | 4.8 | 0.00 | 0.00 | 0.00 | 79 | 1019.6 |
| 20260904021054 | 21 | 0 | 0.0 | 0.0 | 0.00 | 0.00 | 0.00 | 78 | 1019.7 |
| 20260904020557 | 21 | 0 | 0.0 | 0.0 | 0.00 | 0.00 | 0.00 | 78 | 1019.8 |
| 20260904020101 | 21 | 0 | 0.0 | 0.0 | 0.00 | 0.00 | 0.00 | 79 | 1019.7 |
| 20260904015555 | 21 | 0 | 0.0 | 0.0 | 0.00 | 0.00 | 0.00 | 78 | 1019.6 |
| 20260904015055 | 22 | 0 | 0.0 | 0.0 | 0.00 | 0.00 | 0.00 | 78 | 1019.6 |
| 20260904014608 | 22 | 0 | 0.0 | 0.0 | 0.00 | 0.00 | 0.00 | 78 | 1019.5 |
| 20260904014055 | 22 | 0 | 0.0 | 0.0 | 0.00 | 0.00 | 0.00 | 78 | 1019.4 |
| 20260904013556 | 22 | 0 | 0.0 | 0.0 | 0.00 | 0.00 | 0.00 | 78 | 1019.5 |
| 20260904013114 | 22 | 0 | 0.0 | 4.8 | 0.00 | 0.00 | 0.00 | 78 | 1019.5 |
| 20260904012555 | 22 | 0 | 0.0 | 8.0 | 0.00 | 0.00 | 0.00 | 78 | 1019.6 |
| 20260904012055 | 22 | 359 | 1.6 | 9.7 | 0.00 | 0.00 | 0.00 | 77 | 1019.5 |
| 20260904011601 | 22 | 360 | 1.6 | 9.7 | 0.00 | 0.00 | 0.00 | 77 | 1019.5 |
| 20260904011053 | 22 | 360 | 4.8 | 9.7 | 0.00 | 0.00 | 0.00 | 76 | 1019.5 |
| 20260904010554 | 22 | 333 | 3.2 | 4.8 | 0.00 | 0.00 | 0.00 | 75 | 1019.5 |
| 20260904010107 | 23 | 0 | 0.0 | 3.2 | 0.00 | 0.00 | 0.00 | 74 | 1019.3 |
| 20260904005554 | 23 | 0 | 0.0 | 4.8 | 0.00 | 0.00 | 0.00 | 74 | 1019.3 |
| 20260904005055 | 23 | 333 | 1.6 | 6.4 | 0.00 | 0.00 | 0.00 | 73 | 1019.6 |
| 20260904004603 | 23 | 333 | 1.6 | 6.4 | 0.00 | 0.00 | 0.00 | 71 | 1019.5 |
| 20260904004056 | 23 | 330 | 1.6 | 6.4 | 0.00 | 0.00 | 0.00 | 70 | 1019.5 |
| 20260904003555 | 24 | 311 | 3.2 | 12.9 | 0.00 | 0.00 | 0.00 | 69 | 1019.5 |
| 20260904003116 | 24 | 296 | 4.8 | 14.5 | 0.00 | 0.00 | 0.00 | 68 | 1019.4 |
| 20260904002554 | 24 | 314 | 8.0 | 17.7 | 0.00 | 0.00 | 0.00 | 66 | 1019.3 |
| 20260904002055 | 25 | 273 | 11.3 | 17.7 | 0.00 | 0.00 | 0.00 | 64 | 1019.4 |
| 20260904001605 | 26 | 289 | 8.0 | 17.7 | 0.00 | 0.00 | 0.00 | 59 | 1019.5 |
| 20260904001055 | 26 | 0 | 1.6 | 11.3 | 0.00 | 0.00 | 0.00 | 56 | 1019.3 |
| 20260904000555 | 26 | 290 | 4.8 | 11.3 | 0.00 | 0.00 | 0.00 | 56 | 1019.2 |
| 20260904000104 | 25 | 273 | 3.2 | 9.7 | 0.00 | 0.00 | 0.00 | 58 | 1019.2 |
| 20260903235555 | 24 | 254 | 4.8 | 9.7 | 0.00 | 0.00 | 0.00 | 63 | 1019.1 |
| 20260903235052 | 23 | 248 | 4.8 | 14.5 | 0.00 | 0.00 | 0.00 | 64 | 1019.1 |
| 20260903234604 | 23 | 252 | 3.2 | 14.5 | 0.00 | 0.00 | 0.00 | 64 | 1019.0 |
| 20260903234056 | 23 | 260 | 6.4 | 14.5 | 0.00 | 0.00 | 0.00 | 66 | 1019.1 |
| 20260903233556 | 24 | 241 | 4.8 | 20.9 | 0.00 | 0.00 | 0.00 | 69 | 1019.2 |
| 20260903233103 | 23 | 257 | 3.2 | 20.9 | 0.00 | 0.00 | 0.00 | 69 | 1019.4 |
| 20260903232552 | 23 | 295 | 11.3 | 24.1 | 0.00 | 0.00 | 0.00 | 69 | 1019.2 |
| 20260903232055 | 23 | 301 | 12.9 | 24.1 | 0.00 | 0.00 | 0.00 | 68 | 1019.2 |
| 20260903231600 | 23 | 344 | 12.9 | 20.9 | 0.00 | 0.00 | 0.00 | 71 | 1019.2 |
| 20260903231054 | 23 | 319 | 11.3 | 19.3 | 0.00 | 0.00 | 0.00 | 70 | 1019.1 |
| 20260903230556 | 23 | 288 | 9.7 | 20.9 | 0.00 | 0.00 | 0.00 | 69 | 1019.1 |
| 20260903230107 | 23 | 319 | 12.9 | 20.9 | 0.00 | 0.00 | 0.00 | 67 | 1019.0 |
| 20260903225553 | 24 | 295 | 8.0 | 17.7 | 0.00 | 0.00 | 0.00 | 67 | 1019.1 |
| 20260903225052 | 24 | 295 | 11.3 | 16.1 | 0.00 | 0.00 | 0.00 | 68 | 1019.1 |
| 20260903224610 | 23 | 276 | 8.0 | 19.3 | 0.00 | 0.00 | 0.00 | 68 | 1019.2 |
| 20260903224055 | 23 | 313 | 8.0 | 19.3 | 0.00 | 0.00 | 0.00 | 67 | 1019.1 |
| 20260903223557 | 23 | 300 | 11.3 | 16.1 | 0.00 | 0.00 | 0.00 | 69 | 1019.3 |
| 20260903223104 | 24 | 285 | 11.3 | 16.1 | 0.00 | 0.00 | 0.00 | 69 | 1019.2 |
| 20260903222553 | 24 | 296 | 4.8 | 11.3 | 0.00 | 0.00 | 0.00 | 71 | 1019.1 |
| 20260903222053 | 24 | 258 | 3.2 | 11.3 | 0.00 | 0.00 | 0.00 | 76 | 1019.0 |
| 20260903221604 | 23 | 235 | 1.6 | 11.3 | 0.00 | 0.00 | 0.00 | 76 | 1019.1 |
| 20260903221054 | 23 | 243 | 4.8 | 11.3 | 0.00 | 0.00 | 0.00 | 74 | 1018.8 |
| 20260903220554 | 23 | 255 | 6.4 | 11.3 | 0.00 | 0.00 | 0.00 | 72 | 1018.8 |
| 20260903220120 | 25 | 285 | 4.8 | 9.7 | 0.00 | 0.00 | 0.00 | 70 | 1018.8 |
| 20260903215556 | 25 | 248 | 4.8 | 8.0 | 0.00 | 0.00 | 0.00 | 68 | 1019.1 |
| 20260903215055 | 26 | 248 | 4.8 | 9.7 | 0.00 | 0.00 | 0.00 | 65 | 1019.1 |
| 20260903214600 | 26 | 271 | 4.8 | 9.7 | 0.00 | 0.00 | 0.00 | 64 | 1019.3 |
| 20260903214055 | 27 | 216 | 1.6 | 9.7 | 0.00 | 0.00 | 0.00 | 58 | 1019.3 |
| 20260903213554 | 27 | 188 | 1.6 | 9.7 | 0.00 | 0.00 | 0.00 | 54 | 1019.3 |
| 20260903213104 | 28 | 219 | 0.0 | 3.2 | 0.00 | 0.00 | 0.00 | 54 | 1019.1 |
| 20260903212553 | 28 | 0 | 0.0 | 6.4 | 0.00 | 0.00 | 0.00 | 50 | 1019.1 |
| 20260903212055 | 28 | 177 | 1.6 | 8.0 | 0.00 | 0.00 | 0.00 | 50 | 1019.2 |
| 20260903211604 | 28 | 186 | 0.0 | 8.0 | 0.00 | 0.00 | 0.00 | 49 | 1019.3 |
| 20260903211053 | 28 | 238 | 3.2 | 8.0 | 0.00 | 0.00 | 0.00 | 51 | 1019.3 |
| 20260903210552 | 29 | 209 | 1.6 | 6.4 | 0.00 | 0.00 | 0.00 | 46 | 1019.3 |
| 20260903210103 | 29 | 194 | 1.6 | 6.4 | 0.00 | 0.00 | 0.00 | 46 | 1019.4 |
| 20260903205556 | 29 | 162 | 1.6 | 8.0 | 0.00 | 0.00 | 0.00 | 46 | 1019.5 |
| 20260903205058 | 29 | 0 | 3.2 | 9.7 | 0.00 | 0.00 | 0.00 | 46 | 1019.4 |
| 20260903204600 | 28 | 0 | 1.6 | 11.3 | 0.00 | 0.00 | 0.00 | 46 | 1019.4 |
| 20260903204055 | 28 | 174 | 4.8 | 11.3 | 0.00 | 0.00 | 0.00 | 45 | 1019.5 |
| 20260903203555 | 28 | 327 | 1.6 | 6.4 | 0.00 | 0.00 | 0.00 | 46 | 1019.5 |
| 20260903203100 | 28 | 188 | 1.6 | 8.0 | 0.00 | 0.00 | 0.00 | 46 | 1019.6 |
| 20260903202558 | 28 | 0 | 1.6 | 8.0 | 0.00 | 0.00 | 0.00 | 46 | 1019.6 |
| 20260903202055 | 28 | 256 | 3.2 | 8.0 | 0.00 | 0.00 | 0.00 | 45 | 1019.7 |
| 20260903201606 | 28 | 231 | 1.6 | 12.9 | 0.00 | 0.00 | 0.00 | 46 | 1019.8 |
| 20260903201052 | 28 | 244 | 3.2 | 12.9 | 0.00 | 0.00 | 0.00 | 47 | 1019.9 |
| 20260903200555 | 28 | 164 | 6.4 | 12.9 | 0.00 | 0.00 | 0.00 | 46 | 1020.0 |
| 20260903200109 | 28 | 167 | 1.6 | 16.1 | 0.00 | 0.00 | 0.00 | 47 | 1020.1 |
| 20260903195552 | 28 | 172 | 6.4 | 17.7 | 0.00 | 0.00 | 0.00 | 46 | 1020.1 |
| 20260903195052 | 28 | 146 | 8.0 | 20.9 | 0.00 | 0.00 | 0.00 | 46 | 1020.1 |
| 20260903194603 | 28 | 173 | 9.7 | 20.9 | 0.00 | 0.00 | 0.00 | 47 | 1020.3 |
| 20260903194053 | 28 | 180 | 6.4 | 16.1 | 0.00 | 0.00 | 0.00 | 47 | 1020.3 |
| 20260903193555 | 29 | 156 | 8.0 | 16.1 | 0.00 | 0.00 | 0.00 | 46 | 1020.3 |
| 20260903193107 | 29 | 127 | 3.2 | 11.3 | 0.00 | 0.00 | 0.00 | 45 | 1020.4 |
| 20260903192555 | 29 | 82 | 3.2 | 11.3 | 0.00 | 0.00 | 0.00 | 45 | 1020.4 |
| 20260903192054 | 28 | 94 | 4.8 | 11.3 | 0.00 | 0.00 | 0.00 | 45 | 1020.4 |
| 20260903191604 | 28 | 285 | 1.6 | 11.3 | 0.00 | 0.00 | 0.00 | 46 | 1020.6 |